Terug naar catalogus

STARLINK-37903

ActiefCommunicatieVLEO
NORAD 69945·PAYLOAD·🇺🇸 United States

Gelanceerd Jul 9, 2026 vanaf Cape Canaveral Space Force Station

Loading…

Volgende Passages (komende 24 uur)

TLE

VersSource: CelesTrak SupGP

Epoch: Sep 15, 2026, 03:34 UTC

1 69945C 26157C   26258.14909722  .00070694  00000+0  20880-2 0  2584
2 69945  53.1582 358.9826 0001209  90.3489  72.4088 15.34364990    19

Volg STARLINK-37903 in realtime met AllMySat

Download on the App Store